Location: La Bilong�re
(48.1297°N, 1.4584°W)
Time: 21:24:23
(UTC+00:00)

Cosmos 2242 Rocket - Pass Details

Date: 03 March 2021
Orbit: 617 x 652 km, 82.5° (Epoch: 14 April)

Event Time Altitude Azimuth Distance (km) Brightness Sun altitude
Rises 19:04:50 0° 353° (N) 2,963 7.2 -12.7°
Reaches altitude 10° 19:07:08 10° 357° (N) 2,043 6.3 -13.1°
Maximum altitude 19:11:38 60° 78° (ENE) 730 3.6 -13.8°
Drops below altitude 10° 19:16:01 10° 159° (SSE) 2,004 5.9 -14.6°
Sets 19:18:15 0° 162° (SSE) 2,901 6.8 -14.9°
